{"data":{"norad_id":57928,"intl_designator":"2023-147R","name":"STARLINK-30448","alt_names":[],"object_type":"PAYLOAD","status":"ACTIVE","operator":null,"country":"US","launch_date":"2023-09-24","launch_site_code":"AFETR","launch_vehicle":null,"mission":null,"orbit_class":"UNKNOWN","rcs_meters":null,"size_class":null,"mass_kg":null,"dimensions":null,"purposes":["comms"],"wikipedia_slug":null,"has_3d_model":false,"image_url":null,"decayed_at":null,"tle_current":{"epoch":"2026-09-20T04:32:42.207360Z","epoch_age_seconds":161283,"freshness":"FRESH","line1":"1 57928U 23147R   26263.18937740 -.00000093  00000+0  61707-5 0  9994","line2":"2 57928  43.0048 310.2289 0001610 285.6436  74.4238 15.27574115166301","mean_motion":15.27574115,"eccentricity":0.000161,"inclination_deg":43.0048,"raan_deg":310.2289,"arg_perigee_deg":285.6436,"mean_anomaly_deg":74.4238,"bstar":6.1707e-6,"rev_number":16630,"period_min":94.26711187758,"perigee_km":481.96206410476,"apogee_km":484.17137170193,"semimajor_km":6861.2037179033,"source":"CELESTRAK","updated_at":"2026-09-21T09:00:33.743042Z"}}}